GW3425 Weather Reports


time (UTC)temp
F
wind
direction
speed
knots
gust
knots
rain 1hr
in
rain 24hr
in
rain mn
in
humidity
%
barometer
mb
20260506124556 74 47 0.9 3.5 0.00 0.00 0.00 92 1008.8
20260506123042 74 40 0.0 1.7 0.00 0.00 0.00 91 1008.8
20260506121527 74 47 0.0 0.9 0.00 0.00 0.00 91 1008.7
20260506120025 74 128 0.0 3.5 0.00 0.00 0.00 91 1008.5
20260506114602 74 50 0.0 1.7 0.00 0.00 0.00 91 1008.5
20260506113049 74 57 0.0 0.9 0.00 0.00 0.00 91 1008.2
20260506111539 74 79 0.0 3.5 0.00 0.00 0.00 91 1008.4
20260506110024 75 105 0.0 0.0 0.00 0.00 0.00 91 1008.1
20260506104506 75 73 0.0 1.7 0.00 0.00 0.00 90 1008.0
20260506103058 75 94 0.0 1.7 0.00 0.00 0.00 90 1008.2
20260506101543 75 92 0.0 3.5 0.00 0.00 0.00 90 1007.9
20260506100028 75 119 0.0 1.7 0.00 0.00 0.00 90 1007.9
20260506094514 75 107 0.0 4.3 0.00 0.00 0.00 90 1007.9
20260506093104 75 104 0.0 3.5 0.00 0.00 0.00 90 1007.6
20260506091551 75 93 0.0 1.7 0.00 0.00 0.00 90 1007.4
20260506090037 75 78 0.0 1.7 0.00 0.00 0.00 90 1007.6
20260506084545 75 112 0.0 1.7 0.00 0.00 0.00 90 1007.7
20260506083006 75 101 0.0 0.9 0.00 0.00 0.00 90 1007.6
20260506081601 75 101 0.0 1.7 0.00 0.00 0.00 90 1007.6
20260506073014 75 155 0.0 1.7 0.00 0.00 0.00 90 1007.9
20260506071604 75 128 0.0 3.5 0.00 0.00 0.00 90 1008.1
20260506061507 76 114 0.0 5.2 0.00 0.00 0.00 89 1008.3
20260506050104 77 44 0.0 3.5 0.00 0.00 0.00 87 1008.3
20260506044547 77 89 1.7 5.2 0.00 0.00 0.00 86 1008.4
20260506043033 77 137 0.0 5.2 0.00 0.00 0.00 86 1008.3
20260506041519 77 109 1.7 4.3 0.00 0.00 0.00 86 1008.1
20260506040004 77 151 0.9 4.3 0.00 0.00 0.00 85 1008.0
20260506034557 78 121 1.7 6.1 0.00 0.00 0.00 85 1008.1
20260506033040 78 116 0.0 1.7 0.00 0.00 0.00 85 1007.6
20260506031532 78 73 0.9 5.2 0.00 0.00 0.00 84 1007.5
20260506030004 78 178 0.0 3.5 0.00 0.00 0.00 84 1007.1
20260506024555 78 102 0.9 4.3 0.00 0.00 0.00 83 1006.7
20260506023058 79 40 0.9 7.0 0.00 0.00 0.00 82 1006.6
20260506021541 79 119 0.9 7.8 0.00 0.00 0.00 82 1006.6
20260506020013 80 229 0.9 5.2 0.00 0.00 0.00 81 1006.2
20260506014606 81 149 0.9 6.1 0.00 0.00 0.00 80 1006.0
20260506013059 81 102 0.9 5.2 0.00 0.00 0.00 78 1006.0
20260506011533 82 115 0.0 2.6 0.00 0.00 0.00 77 1005.9
20260506010019 82 128 0.0 1.7 0.00 0.00 0.00 76 1005.7
20260506004505 83 128 0.0 3.5 0.00 0.00 0.00 75 1005.5
20260506003057 83 205 0.0 3.5 0.00 0.00 0.00 74 1005.5
20260506001541 83 146 0.0 0.9 0.00 0.00 0.00 74 1005.5
20260506000026 84 101 0.0 7.0 0.00 0.00 0.00 73 1005.2
20260505234514 84 129 0.0 3.5 0.00 0.00 0.00 73 1005.1
20260505233106 84 237 0.9 5.2 0.00 0.00 0.00 73 1005.0
20260505231604 85 360 0.0 6.1 0.00 0.00 0.00 72 1004.8
20260505230034 85 169 0.9 5.2 0.00 0.00 0.00 70 1004.8
20260505224518 85 206 2.6 7.0 0.00 0.00 0.00 70 1004.8
20260505223003 85 238 1.7 5.2 0.00 0.00 0.00 71 1005.0
20260505221600 85 230 2.6 9.6 0.00 0.00 0.00 69 1005.1
20260505220039 84 187 0.0 4.3 0.00 0.00 0.00 72 1005.2
20260505214525 85 229 0.9 6.1 0.00 0.00 0.00 70 1005.6
20260505213016 84 194 0.9 4.3 0.00 0.00 0.00 71 1005.7
20260505211600 84 119 0.0 6.1 0.00 0.00 0.00 73 1005.9
20260505210046 85 225 1.7 6.1 0.00 0.00 0.00 71 1006.0
20260505204528 84 128 1.7 7.0 0.00 0.00 0.00 73 1006.4
20260505203022 84 252 0.9 7.0 0.00 0.00 0.00 73 1006.7
20260505201605 83 162 1.7 6.1 0.00 0.00 0.00 72 1006.8
20260505200052 83 165 2.6 7.0 0.00 0.00 0.00 73 1007.0
20260505194533 83 246 2.6 7.0 0.00 0.00 0.00 73 1007.3
20260505193029 83 286 0.9 5.2 0.00 0.00 0.00 74 1007.5
20260505191510 82 119 2.6 6.1 0.00 0.00 0.00 75 1007.8
20260505190056 82 250 2.6 7.8 0.00 0.00 0.00 75 1007.9
20260505184541 81 329 1.7 5.2 0.00 0.00 0.00 79 1008.1
20260505183027 80 175 2.6 7.8 0.00 0.00 0.00 79 1008.3
20260505181510 80 37 1.7 5.2 0.00 0.00 0.00 80 1008.3
20260505180103 79 239 1.7 5.2 0.00 0.00 0.00 80 1008.6
20260505174547 78 204 0.9 6.1 0.00 0.00 0.00 82 1008.6
20260505173032 77 178 0.9 4.3 0.00 0.00 0.00 83 1008.6
20260505171517 76 211 0.9 6.1 0.00 0.00 0.00 85 1008.8
20260505170112 75 142 0.9 7.0 0.00 0.00 0.00 86 1009.1
20260505164553 75 138 0.9 8.7 0.00 0.00 0.00 87 1008.9
20260505163037 74 144 1.7 7.0 0.00 0.00 0.00 88 1008.9
20260505161521 73 133 1.7 6.1 0.00 0.00 0.00 89 1008.9
20260505153023 72 146 1.7 7.0 0.00 0.00 0.00 92 1008.8
20260505151509 71 130 0.9 5.2 0.00 0.00 0.00 92 1008.9
20260505140116 71 69 3.5 9.6 0.00 0.00 0.00 91 1008.7